Погода в Ковде

Погода в Ковде : погода сейчас, прогноз погоды и архив. Всё, что Вы хотите узнать о погоде в Ковде!

Поиск расширенной информации на нашем сайте:

Другие новости

Новости СМИ2

Главная страница сайта

Новости сайта

03.07.2017

Напоминаем, что на нашем специализированном сайте Метеоцентр.Азия вы можете получить высокодетализированные автоматические прогнозы погоды по пунктам России, СНГ и мира в авиационном формате (включающие направление и скорость ветра, видимость, явления погоды, количество и форму облачности, нижнюю и верхнюю границу облачности).

Рекомендуем: Организации National University of Ireland.

Погода в Ковде - сегодня

Время (UTC), дата Ветер
(°,м/с) 
Видим.   Явления Облачность Т
(°С)
Тd
(°С)
f(%) Тe
(°С)
Pmin
(гПа)
dP
(гПа)
Po
(мм)
O2
(г/м3)
Тmin Tmax R s Состояние
почвы
15 17.07.18 080 (В) 2-3  20000 м    ясно 
+22.8 +13.4 55 +28  1022.2  -0.6  765  282           
21 17.07.18 тихо ()   н/о    н/о 
+14.6 +13.3 92 +20  1022.7  0.5  765  290           
00 18.07.18 070 (В) 1-2  н/о    н/о 
+15 +12.8 87 +21  1023.7  766  290           
09 18.07.18 070 (В) 2-5  20000 м    ясно 
+23.1 +12.4 51 +27  1023.5  -0.4  766  282           
12 18.07.18 070 (В) 3-5  н/о    н/о 
+24.7 +13.6 50 +31  1022.5  -1  765  280           
15 18.07.18 110 (В) 1-4  20000 м    ясно 
+27.7 +13.7 42 +34  1021.6  -0.8  765  277           
21 18.07.18 170 (Ю) 1-1  н/о    н/о 
+16.9 +13.1 78 +23  1021.7  0.3  765  288           
00 19.07.18 010 (С) 1-2  н/о    н/о 
+14.8 +14.3 97 +23  1022.7  0.3  765  290           
09 19.07.18 090 (В) 3-5  20000 м    ясно 
+24.3 +15.6 58 +33  1022.3  -0.3  765  280           
12 19.07.18 110 (В) 1-4  н/о    н/о 
+27.4 +14.7 46 +35  1022.1  -0.3  765  277           
15 19.07.18 130 (ЮВ) 3-5  20000 м    ясно 
+27.2 +12.7 41 +32  1021.2  -0.9  764  278           
21 19.07.18 020 (С) 1-1  н/о    н/о 
+15.9 +14.8 93 +25  1021.1  0.2  764  288           
00 20.07.18 040 (СВ) 1-2  н/о    н/о 
+15.8 +14.8 94 +25  1021.6  0.2  765  288           
09 20.07.18 080 (В) 3-6  20000 м    3/1 600 м верхняя 
[Cu hum|Ci sp]
+23 +15.8 64 +33  1019.8  -0.6  763  280           
21 20.07.18 040 (СВ) 1-1  н/о    н/о 
+16.2 +14.6 90 +26  1016.1  -0.4  761  286           
00 21.07.18 080 (В) 1-2  н/о    н/о 
+15.9 +15.5 97 +26  1015.5  -0.6  760  286           
09 21.07.18 070 (В) 2-4  20000 м    8/3 600 м средняя, верхняя 
[Sc|Ac trans|Ci fib]
+24.4 +16.7 62 +36  1013.3  -0.8  758  277           
12 21.07.18 130 (ЮВ) 3-9  н/о    н/о 
+25.1 +16.3 58 +36  1012.1  -1.3  758  276           
21 21.07.18 140 (ЮВ) 1-3  н/о    н/о 
+20 +16 78 +30  1010.3  -0.5  756  280           
00 22.07.18 060 (СВ) 2-2  н/о    н/о 
+17.2 +15.2 88 +27  1009.7  -0.6  756  283           
12 22.07.18 110 (В) 2-3  н/о    н/о 
+21.5 +19.1 86 +38  1005.5  -1.5  753  277           
21 22.07.18 180 (Ю) 2-5  н/о    н/о 
+21.5 +18.2 81 +36  1006.8  0.9  754  277           
00 23.07.18 190 (Ю) 2-5  н/о    н/о 
+20.4 +17.6 84 +34  1007.4  0.6  754  279           
09 23.07.18 220 (ЮЗ) 2-5  20000 м    6/5 600 м верхняя 
[Cu med, cong|Ci fib]
+28.1 +14.1 42 +35  1008.1  -0.3  755  273           
12 23.07.18 220 (ЮЗ) 2-6  н/о    н/о 
+29.8 +12.1 34 +34  1008.5  0.4  755  272           
Время (UTC), дата Ветер
(°,м/с) 
Видим.   Явления Облачность Т
(°С)
Тd
(°С)
f(%) Тe
(°С)
Pmin
(гПа)
dP
(гПа)
Po
(мм)
O2
(г/м3)
Тmin Tmax R s Состояние
почвы

Для получения пояснительной информации подведите курсор к названию столбца.

ПОГОДА в Ковде - архив

Всё, что Вы хотите узнать о погоде в Ковде - удобно и подробно!

Выберите нужную дату (начиная с 1 января 2015* года) и нажмите кнопку "Найти".
Будут отображены архивные сводки погоды по пункту Ковда, начиная с указанной даты.


Отображать данные в формате CSV (для использования в таблицах Excel)


Внимание! Наш архив погоды предназначен исключительно для личного некоммерческого использования в познавательных целях. Если Вам необходимы официальные справки о состоянии погоды (для производственных, юридических, коммерческих и т.п. целей), обращайтесь в органы Росгидромета.

*Примечание: данная дата относится к архиву по метеостанциям СССР (Россия, СНГ, Балтия).
Архив по метеостанциям Зарубежной Европы и Азии (кроме Китая) хранится 10 дней, по другим регионам земного шара (Китай, Африка, Америка, Австралия, Океания) - 1 день.

Ковда - район местоположения метеостанции


Название, широта, долгота, высота метеостанции:
Ковда 66.7°ш. 32.9°д. 18 м над ур. моря [Российская Федерация]

Дополнительная информация

В oтличие oт бoльшинства пoгoдных сайтoв мы публикуем пoдрoбную метеoинфoрмацию в детальнoм прoфессиoнальнoм фoрмате.

Характеристики температуры и влажнoсти вoздуха измеряются на высoте 2 м в тени вдали oт зданий и деревьев.
Скoрoсть ветра измеряется на высoте 10 м (на урoвне рoста челoвека скoрoсть ветра ниже в 1.5-2 раза). Если метеoстанция нахoдится в гoрoде или в лесу, тo скoрoсть ветра занижена на 2-4 м/с пo сравнению с oткрытым местoм. Скoрoсть ветра над акватoриями крупных рек и oзёр, а также на вершинах хoлмoв на 2-5 м/с выше, чем в oбычных услoвиях.
Атмoсфернoе давление в разных тoчках местнoсти мoжет значительнo oтличаться oт давления на метеoстанции, в зависимoсти oт услoвий рельефа (при пoдъёме на 10 м давление пoнижается примернo на 1 мм рт.ст.).